Regional Weather Roundup
Issued by NWS

Home | Current Version | Previous Version | Text Only | Print | Product List | Glossary Off
Versions: 1 2 3 4 5 6 7 8 9 10 11 12 13 14 15 16 17 18 19 20 21 22 23 24 25 26 27 28 29 30 31 32 33 34 35 36 37 38 39 40 41 42 43 44 45 46 47 48 49 50

000
ASUS43 KTOP 310208
RWRKS

WEATHER ROUNDUP FOR KANSAS
NATIONAL WEATHER SERVICE GOODLAND KS
900 PM CDT MON MAY 30 2016

NOTE:  "FAIR" INDICATES FEW OR NO CLOUDS BELOW 12,000 FEET WITH NO
SIGNIFICANT WEATHER AND/OR OBSTRUCTIONS TO VISIBILITY.

KSZ001>006-013>018-027>032-041>047-310300-
NORTHWEST KANSAS

CITY           SKY/WX    TMP DP  RH WIND       PRES   REMARKS
GOODLAND       CLOUDY    62  53  72 VRB6      30.01R
HAYS           CLOUDY    72  57  60 S12       29.85F
HILL CITY      CLOUDY    74  58  57 S8        29.86R
RUSSELL        CLEAR     71  63  75 SE10      29.84F
$$

KSZ061>065-074>080-084>089-310300-
SOUTHWEST KANSAS

CITY           SKY/WX    TMP DP  RH WIND       PRES   REMARKS
DODGE CITY     CLOUDY    72  57  59 SE14      29.89S
ELKHART          N/A     75  59  57 SE15        N/A
GARDEN CITY    CLOUDY    73  53  49 SE9       29.86S
GREAT BEND     CLOUDY    73  57  56 SE13      29.87S
LIBERAL        CLOUDY    75  54  46 SE12      29.88S
PRATT          CLEAR     71  56  60 SE9       29.89S
$$

KSZ066>073-081>083-090>101-310300-
SOUTHEAST KANSAS

CITY           SKY/WX    TMP DP  RH WIND       PRES   REMARKS
CHANUTE        CLEAR     68  61  78 SE8       29.95F
COFFEYVILLE    MOCLDY    68  62  81 SE5       29.96S
HUTCHINSON     CLEAR     73  63  70 SE14      29.90S
MEDICINE LODGE   N/A     75  59  57 SE10      29.89R
NEWTON         CLEAR     70  57  64 SE10      29.95S
PARSONS        CLOUDY    69  61  75 SE5       29.97S
WICHITA INTL   PTCLDY    72  62  71 SE14      29.91S
WICHITA JABRA  CLEAR     70  62  76 SE10      29.92S
WICHITA MCCONL CLEAR     71  62  74 S12       29.93R
WINFIELD       CLEAR     70  62  76 SE14      29.94S
$$

KSZ007>012-019>026-033>040-048>060-102>105-310300-
NORTHEAST KANSAS

CITY           SKY/WX    TMP DP  RH WIND       PRES   REMARKS
CONCORDIA      CLEAR     73  61  65 S13       29.87S
EMPORIA        CLEAR     70  62  76 SE12      29.94S
LAWRENCE       CLEAR     70  60  70 S8        29.95R
MANHATTAN      CLEAR     73  60  63 S7        29.90R
MARYSVILLE     CLEAR     73  63  68 S8        29.90R
OLATHE IND     CLEAR     69  61  75 SE13      29.97R
OLATHE EXE     CLEAR     66  59  78 S6        29.98R
SALINA         CLEAR     75  62  64 SE15      29.88S
TOPEKA BILLARD CLEAR     73  58  59 SE8       29.94R
TOPEKA FORBES  CLEAR     73  59  61 SE10      29.94R
$$




USA.gov is the U.S. government's official web portal to all federal, state and local government web resources and services.